Погода в Синегорском

Россия / Ростовская область     48°00′42″N   40°49′55″E
темп.,
°C
ветер,
м/с
пор.,
м/с
влажн.,
%
обл.,
%
осадки,
мм/ч
давл.,
гПа
погр.,
м
18 апреля, вс
вс1800:00+8зсз22704 0.0 102112
03:00+7ссв117552 0.0 102110
06:00+7всв117698 0.0 102016
09:00+10св3363100 0.0 1019469
12:00+13юв3351100 0.0 10181598
15:00+15вюв1145100 0.0 10171651
18:00+10ююз5679100 0.0 1017241
21:00+10ю2382100 0.0 1017135
19 апреля, пн
пн1900:00+10юз2381100 0.0 1017172
03:00+9зюз118190 0.0 101720
06:00+10сз117853 0.0 101620
09:00+13ююв21629 0.0 1016530
12:00+16в2249100 0.0 10151573
15:00+16юв114695 0.1 10141701
18:00+14ююз2369100 0.0 1014224
21:00+13ю1176100 0.1 101527
20 апреля, вт
вт2000:00+11в2384100 0.0 101383
03:00+10вюв2590100 0.0 1012115
06:00+11в61395100 2.1 1009549
09:00+12вюв61297100 9.9 1008651
12:00+14вюв71490100 2.6 1005975
15:00+17ююв10157393 2.8 10031311
18:00+15ююз51188100 0.8 1003585
21:00+13ююз8168088 0.8 1005674
21 апреля, ср
ср2100:00+10ююз11177969 0.0 10081086
03:00+9ююз101777100 0.0 10081142
06:00+9ююз91488100 0.0 10111205
09:00+9зюз8128597 0.1 1014919
12:00+13зюз796454 0.3 10161504
15:00+14юз685261 0.4 10171809
18:00+13юз69614 0.0 1019606
21:00+8юз48745 0.0 1021160
22 апреля, чт
чт2200:00+7зюз227652 0.0 102232
03:00+8юз117861 0.0 102314
06:00+8ю008159 0.0 102322
09:00+12св22655 0.0 1024578
12:00+15всв214999 0.1 10241878
15:00+14ссв2253100 0.1 1024841
18:00+14св2359100 0.0 1024100
21:00+12св1257100 0.0 102412